Probability
0 0 0 0 0 0 0 0 0 0 0 0 0 0 0 0 0 0 0 0 0 0 0 0 0 0 0 0 0 0 0 0 0 0 0 0 0 0 0 0 0 0 0 0
0 0 0 0 0 0 0 0 0 0 0 0 0 0 0 0 0 0 0 0 0 0 0 0 0 0 0 0 0 0 0 0 0 0 0 0 0 0 0 0 0 0 0 0
0 0 0 0 0 0 0 0 0 0 0 0 0 0 0 0 0 0 0 0 0 0 0 0 0 0 0 0 0 0 0 0 0 0 0 0 0 0 0 0 0 0 0 0
0 0 0 0 0 0 0 0 0 0 0 0 0 0 0 0 0 0 0 0 0 0 0 0 0 0 0 0 0 0 0 0 0 0 0 0 0 0 0 0 0 0 0 0
0 0 0 0 0 0 0 0 0 0 0 0 0 0 0 0 0 0 0 0 0 0 0 0 0 0 0 0 0 0 0 0 0 0 0 0 0 0 0 0 0 0 0 0
0 0 0 0 0 0 0 0 0 0 0 0 0 0 0 0 0 0 0 0 0 0 0 0 0 0 0 0 0 0 0 0 0 0 0 0 0 0 0 0 0 0 0 0
0 0 0 0 0 0 0 0 0 0 0 0 0 0 0 0 0 0 0 0 0 0 0 0 0 0 0 0 0 0 0 0 0 0 0 0 0 0 0 0 0 0 0 0
0 0 0 0 0 0 0 0 0 0 0 0 0 0 0 0 0 0 0 0 0 0 0 0 0 0 0 0 0 0 0 0 0 0 0 0 0 0 0 0 0 0 0 0
0 0 0 0 0 0 0 0 0 0 0 0 0 0 0 0 0 0 0 0 0 0 0 0 0 0 0 0 0 0 0 0 0 0 0 0 0 0 0 0 0 0 0 0
0 0 0 0 0 0 0 0 0 0 0 0 0 0 0 0 0 0 0 0 0 0 0 0 0 0 0 0 0 0 0 0 0 0 0 0 0 0 0 0 0 0 0 0
0 0 0 0 0 0 0 0 0 0 0 0 0 0 0 0 0 0 0 0 0 0 0 0 0 0 0 0 0 0 0 0 0 0 0 0 0 0 0 0 0 0 0 0
0 0 0 0 0 0 0 0 0 0 0 0 0 0 0 0 0 0 0 0 0 0 0 0 0 0 0 0 0 0 0 0 0 0 0 0 0 0 0 0 0 0 0 0
0 0 0 0 0 0 0 0 0 0 0 0 0 0 0 0 0 0 0 0 0 0 0 0 0 0 0 0 0 0 0 0 0 0 0 0 0 0 0 0 0 0 0 0
0 0 0 0 0 0 0 0 0 0 0 0 0 0 0 0 0 0 0 0 0 0 0 0 0 0 0 0 0 0 0 0 0 0 0 0 0 0 0 0 0 0 0 0
0 0 0 0 0 0 0 0 0 0 0 0 0 0 0 0 0 0 0 0 0 0 0 0 0 0 0 0 0 0 0 0 0 0 0 0 0 0 0 0 0 0 0 0
0 0 0 0 0 0 0 0 0 0 0 0 0 0 0 0 0 0 0 0 0 0 0 0 0 0 0 0 0 0 0 0 0 0 0 0 0 0 0 0 0 0 0 0
0 0 0 0 0 0 0 0 0 0 0 0 0 0 0 0 0 0 0 0 0 0 0 0 0 0 0 0 0 0 0 0 0 0 0 0 0 0 0 0 0 0 0 0
0 0 0 0 0 0 0 0 0 0 0 0 0 0 0 0 0 0 0 0 0 0 0 0 0 0 0 0 0 0 0 0 0 0 0 0 0 0 0 0 0 0 0 0
0 0 0 0 0 0 0 0 0 0 0 0 0 0 0 0 0 0 0 0 0 0 0 0 0 0 0 0 0 0 0 0 0 0 0 0 0 0 0 0 0 0 0 0
0 0 0 0 0 0 0 0 0 0 0 0 0 0 0 0 0 0 0 0 0 0 0 0 0 0 0 0 0 0 0 0 0 0 0 0 0 0 0 0 0 0 0 0
0 0 0 0 0 0 0 0 0 0 0 0 0 0 0 0 0 0 0 0 0 0 0 0 0 0 0 0 0 0 0 0 0 0 0 0 0 0 0 0 0 0 0 0
0 0 0 0 0 0 0 0 0 0 0 0 0 0 0 0 0 0 0 0 0 0 0 0 0 0 0 0 0 0 0 0 0 0 0 0 0 0 0 0 0 0 0 0
0 0 0 0 0 0 0 0 0 0 0 0 0 0 0 0 0 0 0 0 0 0 0 0 0 0 0 0 0 0 0 0 0 0 0 0 0 0 0 0 0 0 0 0
0 0 0 0 0 0 0 0 0 0 0 0 0 0 0 0 0 0 0 0 0 0 0 0 0 0 0 0 0 0 0 0 0 0 0 0 0 0 0 0 0 0 0 0
0 0 0 0 0 0 0 0 0 0 0 0 0 0 0 0 0 0 0 0 0 0 0 0 0 0 0 0 0 0 0 0 0 0 0 0 0 0 0 0 0 0 0 0
0 0 0 0 0 0 0 0 0 0 0 0 0 0 0 0 0 0 0 0 0 0 0 0 0 0 0 0 0 0 0 0 0 0 0 0 0 0 0 0 0 0 0 0
0 0 0 0 0 0 0 0 0 0 0 0 0 0 0 0 0 0 0 0 0 0 0 0 0 0 0 0 0 0 0 0 0 0 0 0 0 0 0 0 0 0 0 0
Wind_Speed
6 7 5 6 6 5 6 6 5 5 4 4 3 2 2 2 1 1 0 1 1 2 2 3 4 5 5 6 6 6 6 6 6 6 6 6 6 6 6 7 7 7 6 6
5 6 6 8 8 8 8 9 9 8 8 4 1 1 1 2 2 1 1 1 1 1 2 3 3 4 4 5 6 6 6 6 6 7 7 7 7 7 7 7 7 7 7 7
4 4 5 8 8 9 7 6 6 8 6 1 1 2 2 3 2 2 1 1 1 1 1 1 2 3 4 4 5 5 6 6 7 7 7 7 7 7 7 7 7 7 7 7
4 5 6 5 1 2 4 6 6 5 3 2 2 2 2 2 3 3 2 2 2 2 2 2 2 3 3 4 4 5 5 6 6 6 6 6 7 7 7 6 6 6 7 7
3 4 8 4 3 3 3 4 6 6 5 3 1 1 3 3 3 2 2 2 2 2 2 2 2 2 3 3 3 4 5 5 5 6 6 6 7 6 5 5 5 5 5 6
3 4 6 2 3 2 1 5 2 3 3 2 2 1 3 2 3 3 3 3 3 3 3 3 2 2 2 2 3 4 4 4 4 5 5 5 5 5 4 4 4 5 5 5
6 6 8 2 4 4 3 3 2 2 2 2 4 4 2 3 3 3 3 3 4 4 3 3 2 2 2 1 2 2 3 3 4 4 4 4 4 4 4 4 4 4 4 4
5 7 9 4 5 5 4 1 1 1 1 2 2 1 2 2 3 3 3 4 4 4 3 3 3 2 2 1 0 1 1 2 3 3 3 3 4 4 4 4 4 4 4 5
7 8 3 6 6 3 1 1 1 1 1 2 2 3 3 3 3 4 4 4 4 4 4 3 3 3 3 1 1 1 1 2 2 3 3 3 3 4 4 4 4 4 4 4
6 8 5 5 6 4 3 3 2 2 2 3 4 4 4 3 4 4 4 5 5 5 5 4 4 3 3 2 1 0 1 1 2 2 3 3 3 2 3 3 3 4 4 4
8 8 7 7 6 4 3 2 3 3 3 4 4 4 4 4 4 4 4 4 5 5 5 5 4 4 3 2 2 1 0 1 1 1 2 2 2 2 2 1 2 4 3 3
9 5 4 3 1 0 2 3 3 3 4 3 4 4 4 4 4 3 4 4 4 5 5 5 5 4 4 3 2 1 0 1 1 1 1 2 2 3 3 4 6 7 6 6
10 5 4 4 3 2 3 3 3 3 4 4 4 4 4 3 3 3 4 5 5 6 5 5 5 4 4 4 3 2 1 1 0 1 1 2 2 3 3 5 6 7 8 9
8 6 6 6 5 3 3 3 3 4 4 4 4 3 3 3 3 3 4 5 5 5 5 5 5 4 4 4 3 2 2 1 1 1 1 1 2 2 2 3 4 4 6 9
8 7 7 4 3 3 2 2 3 4 3 3 2 3 3 3 4 3 3 3 4 4 5 5 5 4 4 4 3 3 2 1 0 0 1 1 1 2 2 3 3 4 4 5
5 5 6 6 6 5 4 4 5 5 4 3 3 3 3 3 2 2 3 4 5 5 5 5 5 4 4 4 3 2 2 2 1 1 1 1 1 2 3 3 4 4 4 4
6 6 6 6 7 6 6 5 5 5 4 4 4 3 2 2 2 2 3 3 3 4 4 4 4 4 4 4 4 2 2 1 1 1 1 1 2 2 2 3 4 4 4 6
8 8 7 6 5 5 5 5 5 5 5 4 3 2 3 4 4 4 3 3 2 2 3 4 4 4 4 4 3 2 2 1 1 1 1 1 2 2 2 3 4 5 4 5
5 5 5 5 4 4 4 5 5 4 4 3 4 4 4 4 4 4 4 4 4 4 3 4 7 5 4 5 4 2 2 2 1 1 1 3 2 2 2 3 3 4 5 5
4 3 4 4 3 4 4 4 4 3 3 3 4 4 4 3 3 4 4 4 4 3 4 5 5 4 4 4 5 2 2 2 2 2 1 1 2 2 2 3 4 4 4 5
4 4 4 4 4 4 5 4 4 4 3 4 5 5 4 3 3 4 4 3 3 4 5 7 4 3 4 4 5 2 2 2 2 2 1 1 2 2 3 3 4 4 4 5
4 4 5 5 4 4 3 3 4 4 4 4 4 4 4 4 4 3 3 3 3 6 4 3 3 5 6 5 3 2 2 2 2 2 2 2 2 3 3 3 3 4 4 4
4 4 5 5 5 4 2 3 4 4 5 5 5 5 5 4 4 4 3 3 3 6 4 3 5 8 8 4 3 3 2 2 2 2 2 2 2 2 3 3 3 4 4 4
4 5 5 4 3 3 4 4 3 3 4 4 4 5 5 3 2 3 3 6 7 7 4 5 9 9 7 3 3 3 3 3 2 2 2 2 2 2 2 3 3 4 4 5
5 5 4 5 5 5 5 4 3 3 4 3 3 4 4 4 4 3 3 4 7 7 3 6 9 8 4 3 3 3 3 3 3 2 2 2 2 3 3 3 3 4 4 4
6 6 6 7 6 5 4 4 4 4 4 4 3 3 3 3 4 3 3 4 5 6 4 3 4 5 3 3 3 3 3 3 3 2 2 2 3 3 3 3 4 4 4 5
5 5 4 4 5 5 5 5 6 6 6 6 5 4 5 4 4 4 5 4 4 4 3 3 3 3 3 3 3 3 3 2 2 2 2 2 3 3 3 4 4 4 4 5
Wind_Direction
281 283 274 261 255 235 220 224 240 266 274 271 247 239 223 197 189 191 134 84 41 19 15 19 23 20 18 14 10 10 14 17 15 10 11 12 14 16 19 24 26 23 22 20
279 255 257 261 250 238 236 232 243 261 273 262 210 183 202 211 204 219 220 164 86 53 38 27 24 21 23 19 16 19 19 18 17 16 15 14 13 16 19 21 21 23 23 21
284 295 297 270 238 216 216 215 221 240 246 202 217 231 229 227 219 223 216 165 143 127 89 55 40 34 31 22 21 24 20 19 20 18 17 13 13 18 17 16 16 17 18 20
288 318 262 242 108 166 220 236 223 235 251 238 236 232 227 220 213 213 182 161 149 127 105 82 63 51 42 34 27 27 23 20 17 16 16 15 20 20 16 15 15 15 15 15
281 285 277 241 181 169 208 262 221 222 233 224 201 347 268 219 187 182 161 145 142 136 122 102 79 64 57 39 29 29 21 15 13 12 12 13 16 12 10 12 14 10 8 9
261 267 263 251 133 111 99 273 215 179 199 189 146 234 258 151 141 146 139 138 136 128 113 109 95 81 70 42 31 21 9 4 6 7 10 11 6 3 1 5 3 357 359 2
238 254 266 206 138 130 185 245 127 134 165 175 194 212 186 145 151 156 151 149 144 135 132 135 119 103 95 61 30 4 358 3 5 2 4 6 1 357 352 350 348 348 352 355
205 228 251 162 149 194 217 131 127 156 179 212 230 228 184 174 176 170 167 165 157 150 152 144 135 136 142 150 10 7 358 360 357 355 356 1 352 346 345 345 347 349 355 357
215 224 224 175 201 215 143 248 255 243 250 239 245 238 227 210 198 191 185 181 169 163 164 162 158 158 173 186 131 9 349 349 346 346 347 350 350 348 345 350 354 352 355 353
268 266 254 226 228 231 220 237 252 250 249 242 245 245 240 224 210 200 192 185 175 171 179 185 175 170 173 152 134 100 334 334 339 341 343 349 352 358 356 353 352 349 349 345
253 269 280 257 231 227 230 235 253 259 248 239 241 247 240 235 221 207 196 184 175 181 190 188 171 170 163 150 145 177 266 312 330 338 341 338 342 346 348 336 336 334 329 326
235 234 236 252 167 166 253 253 254 259 264 260 244 246 242 235 223 208 194 182 181 185 187 181 169 168 162 154 156 171 252 311 333 337 336 338 337 334 331 322 330 332 327 326
241 254 266 280 287 261 257 266 264 254 253 261 257 247 239 234 218 200 194 189 189 189 184 175 169 169 165 159 164 176 196 219 288 321 335 337 334 331 326 328 332 333 331 332
239 244 256 250 250 248 251 264 266 263 256 247 248 246 239 236 220 208 204 196 183 174 174 170 169 176 164 158 166 182 193 212 237 263 301 316 315 317 317 319 321 321 325 328
237 225 234 249 250 246 246 253 261 261 260 263 249 232 226 224 221 218 198 172 164 169 173 167 173 179 157 156 168 183 186 183 191 285 296 295 304 308 308 311 310 314 319 325
237 234 234 239 243 240 241 243 246 251 250 254 248 235 225 217 212 193 175 167 171 184 181 173 180 175 156 158 166 178 188 188 174 268 285 295 306 308 309 311 314 316 317 320
224 231 228 233 235 234 230 232 237 243 242 244 243 229 205 189 187 191 190 182 180 182 175 171 173 157 153 161 167 175 173 188 212 266 270 283 294 297 303 309 311 311 311 316
218 223 219 222 228 233 232 230 233 236 235 237 232 207 200 198 204 206 191 167 155 164 172 165 160 154 158 164 165 166 169 179 196 230 257 270 284 290 297 302 306 308 311 319
226 227 226 225 224 225 229 232 233 233 229 215 207 213 215 211 200 188 170 170 183 202 199 171 168 161 163 171 167 169 174 187 207 234 248 277 290 290 293 298 303 306 312 318
221 218 218 225 226 225 233 236 231 228 221 204 201 208 213 208 184 174 175 196 209 201 170 164 163 165 168 176 176 173 180 192 209 226 233 249 270 281 289 298 303 305 309 311
212 211 214 222 234 237 233 228 220 224 220 199 198 205 206 198 178 174 182 216 215 168 162 170 167 167 167 178 182 176 182 194 205 215 228 247 269 279 285 292 299 304 307 310
203 205 214 217 223 237 233 213 208 211 211 205 199 191 187 191 187 192 206 208 184 168 162 167 167 177 180 178 173 174 179 189 204 216 226 239 255 268 277 287 293 299 302 304
204 206 210 211 214 220 221 214 209 206 208 205 199 194 195 195 187 189 215 198 171 176 167 171 181 184 182 171 169 175 182 194 208 220 231 238 250 261 270 279 284 291 294 297
209 211 212 203 185 197 225 230 212 204 200 201 201 195 187 185 202 207 188 171 175 177 173 182 186 187 181 166 169 177 189 202 212 220 231 241 252 260 265 273 280 286 288 292
210 209 203 196 204 217 220 210 200 201 193 200 203 196 189 187 192 184 163 169 179 175 172 188 190 189 178 167 177 186 194 206 213 215 221 235 246 254 261 268 273 279 283 285
208 211 214 214 214 210 198 192 202 205 196 202 206 194 183 174 167 160 158 168 176 177 172 170 179 186 178 179 185 192 200 221 240 233 227 235 245 253 261 267 272 274 278 281
215 215 215 222 221 209 201 200 207 210 203 200 202 191 180 173 168 168 168 169 173 173 170 169 173 177 181 185 189 196 201 207 213 220 225 232 241 249 258 263 267 271 276 280